SCP
-0 -0 -0 -0 -0 -0 -0 -0 -0 -0 -0 -0 -0 -0 -0 -0 -0 -0 -0 -0 -0 -0 -0 -0 -0 0 -0 -0 -0 -0 -0 -0 -0 -0 -0 0 0 0 0 0 -0 -0 0 0 0 0 0
-0 -0 -0 -0 -0 -0 -0 -0 -0 -0 -0 -0 -0 -0 -0 -0 -0 -0 -0 -0 -0 -0 -0 -0 -0 -0 -0 -0 -0 0 -0 0 -0 -0 0 -0 -0 0 0 -0 -0 0 0 0 0 0 0
-0 -0 -0 -0 -0 -0 -0 -0 -0 -0 -0 -0 -0 -0 -0 -0 -0 -0 -0 -0 -0 -0 -0 -0 -0 0 -0 0 0 0 -0 -0 -0 0 -0 -0 -0 -0 0 0 0 0 -0 0 0 0 0
-0 -0 -0 -0 -0 -0 -0 -0 -0 -0 -0 -0 -0 -0 -0 -0 -0 -0 -0 -0 -0 -0 -0 -0 0 0 0 0 0 0 0 0 0 -0 -0 -0 -0 0 0 0 -0 -0 -0 -0 0 0 0
-0 -0 -0 -0 -0 -0 -0 -0 -0 -0 -0 -0 -0 -0 -0 -0 -0 -0 -0 -0 -0 -0 -0 -0 -0 -0 0 0 -0 0 -0 -0 -0 -0 0 0 -0 -0 0 -0 -0 0 0 0 0 0 0
-0 -0 -0 -0 -0 -0 -0 -0 -0 -0 -0 -0 -0 -0 -0 -0 -0 -0 -0 0 -0 -0 0 -0 0 -0 0 0 0 -0 0 -0 -0 -0 0 -0 0 -0 -0 0 -0 0 0 0 0 0 0
-0 -0 -0 -0 -0 -0 -0 -0 -0 -0 -0 -0 -0 -0 0 0 0 0 0 -0 0 0 0 0 0 0 0 0 0 0 0 -0 -0 -0 -0 0 -0 -0 0 0 0 0 0 0 0 0 0
-0 -0 -0 -0 -0 -0 -0 -0 -0 -0 -0 -0 -0 -0 -0 -0 -0 -0 -0 -0 0 0 0 0 -0 -0 0 -0 0 0 0 -0 0 -0 -0 -0 0 0 0 0 0 0 0 0 0 0 0
-0 -0 -0 -0 -0 -0 -0 -0 -0 -0 -0 -0 -0 -0 -0 -0 -0 -0 0 0 -0 -0 0 0 0 0 0 0 0 0 0 0 -0 -0 -0 0 0 0 0 0 0 0 0 0 0 0 0
-0 -0 -0 -0 -0 -0 -0 -0 -0 -0 -0 -0 -0 -0 -0 -0 -0 0 0 -0 -0 -0 0 0 0 0 0 -0 0 0 0 0 0 0 0 0 -0 0 0 0 0 0 0 0 0 0 0
-0 -0 -0 -0 -0 -0 -0 -0 -0 -0 -0 -0 -0 -0 -0 -0 -0 -0 0 0 0 -0 0 0 0 0 0 0 0 0 0 0 0 0 0 0 0 0 0 0 0 0 0 0 0 0 0
-0 -0 -0 -0 -0 -0 -0 -0 -0 -0 -0 -0 -0 -0 -0 0 0 0 0 -0 -0 0 0 0 0 0 0 0 0 0 0 0 0 0 0 0 0 0 0 0 0 0 0 0 0 0 0
-0 -0 -0 -0 -0 -0 -0 -0 -0 -0 -0 -0 -0 -0 -0 0 0 0 0 -0 0 -0 0 0 0 0 0 -0 0 0 0 0 0 0 0 0 0 0 0 0 0 0 0 0 0 0 0
-0 -0 -0 -0 -0 -0 -0 -0 -0 -0 -0 -0 -0 -0 -0 0 0 0 -0 -0 -0 0 0 0 0 0 0 0 0 0 0 0 0 0 0 0 0 0 0 0 0 0 0 0 0 0 0
-0 -0 -0 -0 -0 -0 -0 -0 -0 -0 -0 -0 -0 0 0 0 0 -0 -0 -0 0 0 0 0 0 0 -0 0 0 0 0 0 0 0 0 0 0 0 0 0 0 0 0 0 0 0 0
0 0 0 -0 -0 -0 -0 -0 -0 -0 -0 -0 -0 -0 0 0 0 -0 -0 -0 0 0 0 0 0 0 0 0 0 0 0 0 0 0 0 0 0 0 -0 0 0 0 0 0 0 0 0
0 0 0 0 -0 -0 -0 -0 -0 -0 -0 -0 -0 -0 0 0 0 0 0 0 0 0 0 0 0 0 0 0 0 0 0 0 0 0 0 0 0 0 0 -0 0 0 0 0 0 0 0
0 0 0 0 -0 -0 -0 -0 -0 -0 -0 0 -0 0 0 0 -0 0 0 0 0 0 0 0 0 0 0 0 0 0 0 0 0 0 0 0 0 0 0 -0 -0 -0 0 0 0 0 0
0 0 0 0 0 -0 -0 -0 -0 -0 0 0 0 0 0 -0 0 0 0 0 0 0 0 0 0 0 0 0 0 0 0 0 0 0 0 0 0 0 0 0 0 0 0 0 0 0 0
0 0 0 0 0 -0 -0 -0 -0 -0 0 0 0 0 0 0 0 0 0 0 0 0 0 0 0 0 0 0 0 0 0 0 0 0 0 0 0 0 0 0 0 0 0 0 0 0 0
0 0 0 0 0 0 0 0 -0 -0 -0 0 0 0 0 0 0 0 0 0 0 0 0 0 0 0 0 0 0 0 0 0 0 0 0 0 0 0 0 0 0 0 0 0 0 0 0
0 0 0 0 0 0 0 0 0 -0 -0 0 0 0 0 0 0 0 0 0 0 0 0 0 0 0 0 0 0 -0 0 0 0 0 0 0 0 0 0 0 0 0 0 0 0 0 0
0 0 0 0 0 0 0 0 0 -0 0 0 0 0 0 0 0 0 0 0 0 0 0 0 0 0 0 0 0 0 0 0 0 0 0 0 0 0 0 0 0 0 0 0 0 0 0
0 0 0 0 0 0 0 0 0 0 0 0 0 0 0 0 0 0 0 0 0 0 0 0 0 0 0 0 0 0 0 0 0 0 0 0 0 0 0 0 0 0 0 0 0 0 0
0 0 0 0 0 0 0 0 0 0 0 0 0 0 0 0 0 0 0 0 0 0 0 0 0 0 0 0 0 0 0 0 0 0 0 0 0 0 0 0 0 0 0 0 0 0 0
0 0 0 0 0 0 0 0 0 0 0 0 0 0 0 0 0 0 0 0 0 0 0 0 0 0 0 0 0 0 0 0 0 0 0 0 0 0 0 0 0 0 0 0 0 0 0
0 0 0 0 0 0 0 0 0 0 0 0 0 0 0 0 0 0 0 0 0 0 0 0 0 0 0 0 0 0 0 0 0 0 0 0 0 0 0 0 0 0 0 0 0 0 -0
0 0 0 0 0 0 0 0 0 0 0 0 0 0 0 0 0 0 0 0 0 0 0 0 0 0 0 0 0 0 0 0 0 0 0 0 0 0 0 0 0 0 0 0 0 0 0
0 0 0 0 0 0 0 0 0 0 0 0 0 -0 0 0 0 0 0 0 0 0 0 0 0 0 0 0 0 0 0 0 0 0 0 0 0 0 0 0 0 0 0 0 0 0 0
Wind_Speed_500mb
50 50 48 47 45 40 35 30 24 15 12 12 11 11 14 22 27 25 19 16 14 12 7 10 15 14 15 8 15 7 19 26 20 17 14 9 14 11 16 3 8 20 8 4 3 10 16
52 51 49 48 46 44 41 34 28 20 10 9 9 10 16 22 25 20 16 13 10 7 7 7 10 10 18 17 5 2 9 11 16 19 14 16 14 15 12 11 14 15 12 10 11 16 8
52 52 51 49 47 46 44 40 34 25 13 5 6 9 14 18 18 15 14 9 5 3 6 10 8 13 21 11 6 2 6 8 11 15 16 14 15 21 11 14 1 20 17 25 24 18 5
51 51 52 51 49 48 46 43 38 30 17 3 4 9 13 14 14 12 11 7 4 4 7 9 10 11 5 6 5 4 6 9 8 11 12 17 14 15 9 11 20 24 28 22 25 25 16
50 50 51 51 51 49 47 46 40 32 21 7 6 11 13 12 11 9 9 7 7 8 8 11 12 17 7 7 7 4 6 10 15 16 14 18 15 12 19 28 28 22 17 16 11 12 9
52 51 51 51 53 53 51 49 45 35 22 11 3 13 15 13 9 6 5 6 9 10 7 13 23 19 18 9 9 4 4 11 17 20 26 21 17 21 26 11 18 34 30 27 26 26 15
54 53 52 53 54 56 56 53 49 37 26 12 4 9 16 14 9 5 6 7 8 8 27 22 12 14 12 7 7 6 5 14 10 22 20 8 18 22 23 18 21 25 28 31 32 29 30
54 55 55 55 55 56 59 57 52 40 31 17 3 5 14 14 6 4 6 14 10 15 15 27 19 9 4 8 11 10 9 16 19 23 26 21 24 16 14 15 25 28 29 34 31 32 30
52 54 56 57 56 57 58 59 55 43 34 21 6 5 13 12 9 6 2 12 14 12 15 15 21 23 16 16 9 6 10 20 25 22 23 23 30 30 12 22 26 29 31 31 32 37 35
50 52 55 58 58 56 56 56 54 45 34 23 11 10 17 15 4 5 8 12 12 8 11 27 17 12 12 11 11 5 9 16 23 28 28 17 32 11 19 25 28 28 31 34 34 34 32
48 51 54 57 58 56 54 52 51 44 33 23 13 14 19 4 3 10 8 14 7 3 9 21 21 13 9 17 5 17 6 11 19 27 24 32 30 25 20 22 22 27 31 30 36 38 40
46 50 54 56 58 55 52 50 47 41 29 23 15 14 13 6 7 12 12 13 4 12 5 13 15 16 23 24 9 6 15 18 25 17 31 35 24 22 10 21 24 16 29 35 39 34 30
43 47 52 55 57 57 52 47 46 39 25 14 14 9 3 8 16 17 13 8 11 15 4 12 8 9 17 9 2 5 15 22 14 19 25 35 23 15 7 16 26 22 28 19 13 17 26
40 44 49 53 55 57 55 48 44 40 31 13 7 8 5 6 16 16 7 12 13 3 10 11 8 11 16 2 11 4 16 24 16 7 20 18 17 28 23 14 23 27 26 17 32 27 34
38 42 46 50 53 55 55 51 43 42 37 20 10 8 7 11 15 11 15 16 9 23 16 14 21 23 26 16 8 13 19 16 14 17 11 17 14 47 34 23 17 21 23 28 20 28 30
36 40 44 47 50 53 53 51 46 40 40 19 4 16 10 11 15 7 13 25 5 14 16 11 20 14 18 21 15 18 16 12 3 8 7 13 31 23 30 15 28 36 29 20 13 14 31
33 38 43 46 48 50 52 51 47 41 36 14 8 13 4 10 9 16 17 10 9 13 15 12 21 19 21 19 17 16 12 8 11 8 22 24 18 24 30 31 36 33 26 24 27 21 21
33 37 41 45 46 48 49 49 49 44 36 18 11 10 8 11 15 17 14 14 11 16 6 6 10 14 14 18 15 20 20 12 14 14 20 20 11 23 36 47 39 27 24 25 9 24 28
32 35 38 42 45 47 49 46 42 44 42 34 18 13 6 12 9 12 11 1 7 13 10 14 11 7 16 14 10 13 15 9 10 9 12 16 8 15 19 16 31 36 31 39 30 23 35
30 30 35 38 42 46 49 45 38 33 36 28 14 8 5 8 8 12 11 3 2 11 7 9 14 12 14 15 16 13 19 18 3 11 17 7 13 20 22 36 39 40 46 47 42 17 29
31 31 31 33 37 43 45 44 39 31 26 22 9 8 7 9 13 13 5 7 11 1 3 7 9 8 8 10 23 27 21 29 34 3 9 8 22 30 34 42 47 49 50 48 37 40 30
29 27 26 28 32 37 40 41 42 34 18 11 15 13 19 24 9 12 9 6 9 11 8 9 4 19 18 18 22 31 28 24 17 23 21 17 28 35 43 46 42 45 46 33 28 24 21
27 25 26 27 27 31 33 35 40 40 23 13 19 9 13 13 13 11 11 8 6 4 4 7 13 16 19 21 26 33 38 39 38 29 26 23 22 27 39 43 43 38 20 32 29 34 30
26 26 26 25 24 26 27 27 32 36 31 23 19 16 15 16 4 11 7 4 8 6 11 20 19 19 18 26 39 45 48 46 38 33 33 19 20 21 27 37 27 14 25 22 19 29 33
30 27 26 24 22 22 24 23 24 26 28 17 21 12 13 13 22 13 5 9 10 12 15 7 11 10 25 28 14 16 16 19 17 29 16 23 15 20 17 22 34 18 11 15 21 32 15
35 31 29 25 24 22 23 20 22 21 21 13 21 18 8 14 9 13 15 11 11 11 14 9 3 8 17 22 15 17 20 14 11 16 11 10 15 15 23 34 26 19 34 32 39 20 30
41 35 32 27 27 24 23 20 17 17 16 19 9 23 6 16 3 14 10 15 12 7 10 14 9 15 7 11 16 14 20 14 14 19 28 22 24 25 25 30 14 13 41 37 15 20 60
45 41 35 31 28 24 23 17 14 15 15 15 9 24 12 11 25 9 4 9 8 9 11 15 15 9 17 15 10 10 13 11 18 19 24 25 12 19 14 23 13 59 38 11 22 52 58
47 45 42 36 29 25 23 19 13 14 14 10 9 24 29 9 13 16 22 22 14 7 10 7 10 11 12 8 10 8 20 14 21 18 17 7 14 9 12 14 41 44 38 48 49 55 61
Wind_Direction_500mb
46 44 42 41 39 36 33 30 27 23 28 37 52 87 113 132 142 141 132 120 108 102 131 192 203 233 290 262 86 93 25 13 8 2 6 340 320 316 296 32 279 279 116 217 245 236 227
45 42 39 37 35 33 31 28 28 25 26 46 71 102 127 139 150 151 146 137 126 113 110 155 200 246 288 250 115 45 16 10 18 17 20 8 7 337 318 320 295 6 289 245 202 213 271
42 39 36 33 30 28 26 24 22 23 23 41 95 124 137 149 159 161 160 157 149 147 147 147 241 290 287 192 146 284 7 8 6 8 6 5 333 305 341 256 208 283 258 216 213 204 244
40 37 34 31 27 23 21 18 14 12 16 19 162 157 157 160 168 176 183 192 211 227 219 219 228 292 347 139 212 259 288 283 337 335 342 334 327 303 296 322 236 234 228 271 166 188 172
38 35 32 30 26 21 17 13 9 3 0 3 208 190 180 172 172 187 203 224 253 255 237 202 235 260 244 190 206 203 307 312 317 303 296 306 303 306 271 246 244 210 312 323 307 206 166
34 32 30 27 24 20 16 14 7 4 358 344 267 203 194 187 180 185 212 251 267 239 244 212 260 279 186 208 157 225 305 313 314 313 292 239 266 262 249 292 342 326 329 322 309 310 251
30 29 28 26 22 19 15 14 12 11 5 350 298 219 200 194 191 216 212 311 250 222 215 249 144 282 121 139 191 228 315 320 291 283 267 312 306 296 8 15 334 310 298 297 297 293 290
28 27 26 23 21 18 15 14 14 13 9 5 344 211 199 194 198 157 180 244 348 313 265 227 257 250 133 209 220 220 317 288 325 302 309 271 255 15 348 320 305 292 282 281 291 310 316
25 25 23 21 19 17 15 13 14 14 14 15 37 152 169 165 150 147 265 311 315 308 267 174 209 209 206 214 259 58 336 328 306 303 304 318 306 325 356 306 290 283 290 300 314 315 297
22 20 19 17 16 16 14 14 14 15 20 26 49 119 142 145 190 272 221 332 326 283 270 159 189 177 203 240 225 200 328 328 304 306 318 309 288 325 284 280 302 300 336 332 314 306 295
17 17 15 13 13 12 13 13 13 16 21 33 59 124 143 46 27 297 309 323 295 266 272 155 171 132 191 237 69 141 311 318 308 323 309 290 305 331 310 304 355 306 320 309 294 282 281
12 12 12 10 10 9 10 10 12 12 19 35 65 122 134 15 328 333 321 300 308 239 244 135 143 212 218 209 202 312 294 266 276 287 287 269 257 254 241 327 301 275 284 300 294 281 269
7 8 8 8 8 7 7 9 8 8 3 18 57 108 16 24 338 322 311 254 235 247 148 141 228 162 249 276 165 240 307 302 291 329 324 327 296 93 47 320 317 319 327 314 301 318 296
2 4 5 5 5 5 3 5 6 3 358 323 316 354 320 357 326 317 304 241 259 331 52 49 305 299 254 23 303 278 286 290 133 19 323 315 315 25 14 303 310 297 288 276 293 302 304
356 359 1 3 3 3 1 0 3 0 355 341 278 278 331 300 334 328 270 239 327 7 17 354 318 259 270 160 183 286 274 323 35 21 333 321 297 334 322 314 336 313 299 294 302 288 284
350 353 356 359 360 0 360 358 359 359 353 356 283 277 237 335 310 315 253 259 49 38 344 322 295 318 318 331 315 337 325 83 68 78 14 300 305 303 294 309 270 259 251 280 276 289 275
344 348 350 355 357 358 358 357 356 359 356 358 326 262 47 333 298 261 251 29 74 76 4 339 337 323 315 316 332 309 300 32 93 335 349 311 280 288 299 285 303 318 302 264 272 281 287
338 343 345 349 354 354 356 357 355 355 359 348 290 285 357 339 266 233 38 15 356 349 342 310 310 314 320 340 314 300 302 4 61 1 321 323 296 294 300 293 282 266 300 302 4 296 285
328 334 340 345 349 351 353 355 357 354 357 354 310 305 8 343 299 353 78 101 10 337 20 337 323 23 343 319 316 299 309 57 46 6 354 354 317 316 309 319 350 320 304 300 291 277 265
322 330 336 341 346 349 351 354 356 358 353 350 306 314 90 45 31 336 20 269 207 113 298 314 306 312 289 301 290 280 288 305 328 282 176 182 264 267 278 292 317 305 295 292 288 294 292
321 327 334 339 343 347 351 354 356 358 5 11 323 49 354 329 48 335 330 340 307 277 13 275 290 214 347 322 323 294 316 325 314 273 197 220 272 280 296 301 294 301 307 310 337 323 325
311 317 326 332 338 346 352 355 357 4 28 12 357 346 342 287 319 287 160 142 309 35 323 327 288 333 334 305 294 298 315 318 305 314 325 311 296 304 296 295 309 303 310 341 330 311 300
297 307 318 328 334 343 352 359 2 7 29 27 352 336 299 304 232 257 67 47 15 331 272 307 328 314 307 328 327 299 290 284 274 284 287 289 289 305 296 303 308 304 346 321 333 340 354
285 296 309 317 328 341 349 357 3 12 27 43 351 333 294 291 257 7 14 356 300 316 307 315 306 295 342 319 304 289 266 250 250 250 246 271 299 294 301 306 300 40 30 4 332 321 322
270 279 288 301 312 327 341 348 355 6 19 47 358 15 325 292 334 261 206 320 306 268 225 297 320 2 326 312 290 301 334 215 212 239 184 216 268 285 292 304 293 2 16 334 332 309 30
260 267 275 279 296 306 328 328 338 353 11 47 327 359 311 298 55 355 322 307 301 330 274 180 186 323 317 290 276 285 298 345 327 328 297 271 241 258 281 284 306 5 352 332 306 292 348
252 258 261 269 280 290 313 317 320 338 355 11 320 357 344 294 334 3 341 347 328 294 289 296 17 318 257 274 304 316 312 332 315 334 332 319 322 301 312 308 295 36 345 352 359 311 319
246 248 253 262 269 277 298 301 320 334 346 11 291 327 347 289 299 317 304 307 299 275 303 16 294 183 261 275 309 336 314 326 318 312 312 306 292 298 313 304 308 348 356 357 303 309 317
242 241 247 253 258 265 277 278 296 321 335 18 27 339 325 278 269 299 283 251 242 272 291 267 305 287 347 311 342 324 318 317 321 309 319 319 325 301 291 282 304 335 333 331 326 320 318
Wind_Speed_850mb
50 50 48 47 45 40 35 30 24 15 12 12 11 11 14 22 27 25 19 16 14 12 7 10 15 14 15 8 15 7 19 26 20 17 14 9 14 11 16 3 8 20 8 4 3 10 16
52 51 49 48 46 44 41 34 28 20 10 9 9 10 16 22 25 20 16 13 10 7 7 7 10 10 18 17 5 2 9 11 16 19 14 16 14 15 12 11 14 15 12 10 11 16 8
52 52 51 49 47 46 44 40 34 25 13 5 6 9 14 18 18 15 14 9 5 3 6 10 8 13 21 11 6 2 6 8 11 15 16 14 15 21 11 14 1 20 17 25 24 18 5
51 51 52 51 49 48 46 43 38 30 17 3 4 9 13 14 14 12 11 7 4 4 7 9 10 11 5 6 5 4 6 9 8 11 12 17 14 15 9 11 20 24 28 22 25 25 16
50 50 51 51 51 49 47 46 40 32 21 7 6 11 13 12 11 9 9 7 7 8 8 11 12 17 7 7 7 4 6 10 15 16 14 18 15 12 19 28 28 22 17 16 11 12 9
52 51 51 51 53 53 51 49 45 35 22 11 3 13 15 13 9 6 5 6 9 10 7 13 23 19 18 9 9 4 4 11 17 20 26 21 17 21 26 11 18 34 30 27 26 26 15
54 53 52 53 54 56 56 53 49 37 26 12 4 9 16 14 9 5 6 7 8 8 27 22 12 14 12 7 7 6 5 14 10 22 20 8 18 22 23 18 21 25 28 31 32 29 30
54 55 55 55 55 56 59 57 52 40 31 17 3 5 14 14 6 4 6 14 10 15 15 27 19 9 4 8 11 10 9 16 19 23 26 21 24 16 14 15 25 28 29 34 31 32 30
52 54 56 57 56 57 58 59 55 43 34 21 6 5 13 12 9 6 2 12 14 12 15 15 21 23 16 16 9 6 10 20 25 22 23 23 30 30 12 22 26 29 31 31 32 37 35
50 52 55 58 58 56 56 56 54 45 34 23 11 10 17 15 4 5 8 12 12 8 11 27 17 12 12 11 11 5 9 16 23 28 28 17 32 11 19 25 28 28 31 34 34 34 32
48 51 54 57 58 56 54 52 51 44 33 23 13 14 19 4 3 10 8 14 7 3 9 21 21 13 9 17 5 17 6 11 19 27 24 32 30 25 20 22 22 27 31 30 36 38 40
46 50 54 56 58 55 52 50 47 41 29 23 15 14 13 6 7 12 12 13 4 12 5 13 15 16 23 24 9 6 15 18 25 17 31 35 24 22 10 21 24 16 29 35 39 34 30
43 47 52 55 57 57 52 47 46 39 25 14 14 9 3 8 16 17 13 8 11 15 4 12 8 9 17 9 2 5 15 22 14 19 25 35 23 15 7 16 26 22 28 19 13 17 26
40 44 49 53 55 57 55 48 44 40 31 13 7 8 5 6 16 16 7 12 13 3 10 11 8 11 16 2 11 4 16 24 16 7 20 18 17 28 23 14 23 27 26 17 32 27 34
38 42 46 50 53 55 55 51 43 42 37 20 10 8 7 11 15 11 15 16 9 23 16 14 21 23 26 16 8 13 19 16 14 17 11 17 14 47 34 23 17 21 23 28 20 28 30
36 40 44 47 50 53 53 51 46 40 40 19 4 16 10 11 15 7 13 25 5 14 16 11 20 14 18 21 15 18 16 12 3 8 7 13 31 23 30 15 28 36 29 20 13 14 31
33 38 43 46 48 50 52 51 47 41 36 14 8 13 4 10 9 16 17 10 9 13 15 12 21 19 21 19 17 16 12 8 11 8 22 24 18 24 30 31 36 33 26 24 27 21 21
33 37 41 45 46 48 49 49 49 44 36 18 11 10 8 11 15 17 14 14 11 16 6 6 10 14 14 18 15 20 20 12 14 14 20 20 11 23 36 47 39 27 24 25 9 24 28
32 35 38 42 45 47 49 46 42 44 42 34 18 13 6 12 9 12 11 1 7 13 10 14 11 7 16 14 10 13 15 9 10 9 12 16 8 15 19 16 31 36 31 39 30 23 35
30 30 35 38 42 46 49 45 38 33 36 28 14 8 5 8 8 12 11 3 2 11 7 9 14 12 14 15 16 13 19 18 3 11 17 7 13 20 22 36 39 40 46 47 42 17 29
31 31 31 33 37 43 45 44 39 31 26 22 9 8 7 9 13 13 5 7 11 1 3 7 9 8 8 10 23 27 21 29 34 3 9 8 22 30 34 42 47 49 50 48 37 40 30
29 27 26 28 32 37 40 41 42 34 18 11 15 13 19 24 9 12 9 6 9 11 8 9 4 19 18 18 22 31 28 24 17 23 21 17 28 35 43 46 42 45 46 33 28 24 21
27 25 26 27 27 31 33 35 40 40 23 13 19 9 13 13 13 11 11 8 6 4 4 7 13 16 19 21 26 33 38 39 38 29 26 23 22 27 39 43 43 38 20 32 29 34 30
26 26 26 25 24 26 27 27 32 36 31 23 19 16 15 16 4 11 7 4 8 6 11 20 19 19 18 26 39 45 48 46 38 33 33 19 20 21 27 37 27 14 25 22 19 29 33
30 27 26 24 22 22 24 23 24 26 28 17 21 12 13 13 22 13 5 9 10 12 15 7 11 10 25 28 14 16 16 19 17 29 16 23 15 20 17 22 34 18 11 15 21 32 15
35 31 29 25 24 22 23 20 22 21 21 13 21 18 8 14 9 13 15 11 11 11 14 9 3 8 17 22 15 17 20 14 11 16 11 10 15 15 23 34 26 19 34 32 39 20 30
41 35 32 27 27 24 23 20 17 17 16 19 9 23 6 16 3 14 10 15 12 7 10 14 9 15 7 11 16 14 20 14 14 19 28 22 24 25 25 30 14 13 41 37 15 20 60
45 41 35 31 28 24 23 17 14 15 15 15 9 24 12 11 25 9 4 9 8 9 11 15 15 9 17 15 10 10 13 11 18 19 24 25 12 19 14 23 13 59 38 11 22 52 58
47 45 42 36 29 25 23 19 13 14 14 10 9 24 29 9 13 16 22 22 14 7 10 7 10 11 12 8 10 8 20 14 21 18 17 7 14 9 12 14 41 44 38 48 49 55 61
Wind_Direction_850mb
46 44 42 41 39 36 33 30 27 23 28 37 52 87 113 132 142 141 132 120 108 102 131 192 203 233 290 262 86 93 25 13 8 2 6 340 320 316 296 32 279 279 116 217 245 236 227
45 42 39 37 35 33 31 28 28 25 26 46 71 102 127 139 150 151 146 137 126 113 110 155 200 246 288 250 115 45 16 10 18 17 20 8 7 337 318 320 295 6 289 245 202 213 271
42 39 36 33 30 28 26 24 22 23 23 41 95 124 137 149 159 161 160 157 149 147 147 147 241 290 287 192 146 284 7 8 6 8 6 5 333 305 341 256 208 283 258 216 213 204 244
40 37 34 31 27 23 21 18 14 12 16 19 162 157 157 160 168 176 183 192 211 227 219 219 228 292 347 139 212 259 288 283 337 335 342 334 327 303 296 322 236 234 228 271 166 188 172
38 35 32 30 26 21 17 13 9 3 0 3 208 190 180 172 172 187 203 224 253 255 237 202 235 260 244 190 206 203 307 312 317 303 296 306 303 306 271 246 244 210 312 323 307 206 166
34 32 30 27 24 20 16 14 7 4 358 344 267 203 194 187 180 185 212 251 267 239 244 212 260 279 186 208 157 225 305 313 314 313 292 239 266 262 249 292 342 326 329 322 309 310 251
30 29 28 26 22 19 15 14 12 11 5 350 298 219 200 194 191 216 212 311 250 222 215 249 144 282 121 139 191 228 315 320 291 283 267 312 306 296 8 15 334 310 298 297 297 293 290
28 27 26 23 21 18 15 14 14 13 9 5 344 211 199 194 198 157 180 244 348 313 265 227 257 250 133 209 220 220 317 288 325 302 309 271 255 15 348 320 305 292 282 281 291 310 316
25 25 23 21 19 17 15 13 14 14 14 15 37 152 169 165 150 147 265 311 315 308 267 174 209 209 206 214 259 58 336 328 306 303 304 318 306 325 356 306 290 283 290 300 314 315 297
22 20 19 17 16 16 14 14 14 15 20 26 49 119 142 145 190 272 221 332 326 283 270 159 189 177 203 240 225 200 328 328 304 306 318 309 288 325 284 280 302 300 336 332 314 306 295
17 17 15 13 13 12 13 13 13 16 21 33 59 124 143 46 27 297 309 323 295 266 272 155 171 132 191 237 69 141 311 318 308 323 309 290 305 331 310 304 355 306 320 309 294 282 281
12 12 12 10 10 9 10 10 12 12 19 35 65 122 134 15 328 333 321 300 308 239 244 135 143 212 218 209 202 312 294 266 276 287 287 269 257 254 241 327 301 275 284 300 294 281 269
7 8 8 8 8 7 7 9 8 8 3 18 57 108 16 24 338 322 311 254 235 247 148 141 228 162 249 276 165 240 307 302 291 329 324 327 296 93 47 320 317 319 327 314 301 318 296
2 4 5 5 5 5 3 5 6 3 358 323 316 354 320 357 326 317 304 241 259 331 52 49 305 299 254 23 303 278 286 290 133 19 323 315 315 25 14 303 310 297 288 276 293 302 304
356 359 1 3 3 3 1 0 3 0 355 341 278 278 331 300 334 328 270 239 327 7 17 354 318 259 270 160 183 286 274 323 35 21 333 321 297 334 322 314 336 313 299 294 302 288 284
350 353 356 359 360 0 360 358 359 359 353 356 283 277 237 335 310 315 253 259 49 38 344 322 295 318 318 331 315 337 325 83 68 78 14 300 305 303 294 309 270 259 251 280 276 289 275
344 348 350 355 357 358 358 357 356 359 356 358 326 262 47 333 298 261 251 29 74 76 4 339 337 323 315 316 332 309 300 32 93 335 349 311 280 288 299 285 303 318 302 264 272 281 287
338 343 345 349 354 354 356 357 355 355 359 348 290 285 357 339 266 233 38 15 356 349 342 310 310 314 320 340 314 300 302 4 61 1 321 323 296 294 300 293 282 266 300 302 4 296 285
328 334 340 345 349 351 353 355 357 354 357 354 310 305 8 343 299 353 78 101 10 337 20 337 323 23 343 319 316 299 309 57 46 6 354 354 317 316 309 319 350 320 304 300 291 277 265
322 330 336 341 346 349 351 354 356 358 353 350 306 314 90 45 31 336 20 269 207 113 298 314 306 312 289 301 290 280 288 305 328 282 176 182 264 267 278 292 317 305 295 292 288 294 292
321 327 334 339 343 347 351 354 356 358 5 11 323 49 354 329 48 335 330 340 307 277 13 275 290 214 347 322 323 294 316 325 314 273 197 220 272 280 296 301 294 301 307 310 337 323 325
311 317 326 332 338 346 352 355 357 4 28 12 357 346 342 287 319 287 160 142 309 35 323 327 288 333 334 305 294 298 315 318 305 314 325 311 296 304 296 295 309 303 310 341 330 311 300
297 307 318 328 334 343 352 359 2 7 29 27 352 336 299 304 232 257 67 47 15 331 272 307 328 314 307 328 327 299 290 284 274 284 287 289 289 305 296 303 308 304 346 321 333 340 354
285 296 309 317 328 341 349 357 3 12 27 43 351 333 294 291 257 7 14 356 300 316 307 315 306 295 342 319 304 289 266 250 250 250 246 271 299 294 301 306 300 40 30 4 332 321 322
270 279 288 301 312 327 341 348 355 6 19 47 358 15 325 292 334 261 206 320 306 268 225 297 320 2 326 312 290 301 334 215 212 239 184 216 268 285 292 304 293 2 16 334 332 309 30
260 267 275 279 296 306 328 328 338 353 11 47 327 359 311 298 55 355 322 307 301 330 274 180 186 323 317 290 276 285 298 345 327 328 297 271 241 258 281 284 306 5 352 332 306 292 348
252 258 261 269 280 290 313 317 320 338 355 11 320 357 344 294 334 3 341 347 328 294 289 296 17 318 257 274 304 316 312 332 315 334 332 319 322 301 312 308 295 36 345 352 359 311 319
246 248 253 262 269 277 298 301 320 334 346 11 291 327 347 289 299 317 304 307 299 275 303 16 294 183 261 275 309 336 314 326 318 312 312 306 292 298 313 304 308 348 356 357 303 309 317
242 241 247 253 258 265 277 278 296 321 335 18 27 339 325 278 269 299 283 251 242 272 291 267 305 287 347 311 342 324 318 317 321 309 319 319 325 301 291 282 304 335 333 331 326 320 318